Wetterdaten: aktuell Freitag, 30.07.2021 09:15
Datum Zeit Temp. I. Temp. 2m Temp. 5cm Temp. -10cm Feuchte I. Feuchte A. Luftdruck Regen Wind Richtung Richtung ET Solar Taupunkt Windchill Windben Empfang
30.07.2021 09:15 24,7 C 20,3 C 30,0 C 0,0 C 59 % 85 % 1014,5 hPa 0,0 l/m 0,0 km/h (0 Bft) - - 0 0,000 mm 694 W/m 17,7 C 20,3 C 0,0 km/h (0 Bft) 99,12 %
30.07.2021 09:10 24,7 C 20,3 C 28,9 C 0,0 C 59 % 87 % 1014,5 hPa 0,0 l/m 0,0 km/h (0 Bft) NO 45 0,000 mm 610 W/m 18,1 C 20,3 C 4,8 km/h (1 Bft) 100,00 %
30.07.2021 09:05 24,7 C 20,0 C 30,6 C 0,0 C 59 % 85 % 1014,3 hPa 0,0 l/m 0,0 km/h (0 Bft) NO 45 0,000 mm 582 W/m 17,4 C 20,0 C 1,6 km/h (1 Bft) 98,25 %
30.07.2021 09:00 24,7 C 19,8 C 28,3 C 0,0 C 58 % 85 % 1014,2 hPa 0,0 l/m 0,0 km/h (0 Bft) - - 0 0,178 mm 559 W/m 17,2 C 19,8 C 0,0 km/h (0 Bft) 100,00 %
30.07.2021 08:55 24,7 C 19,7 C 28,3 C 0,0 C 58 % 86 % 1014,3 hPa 0,0 l/m 0,0 km/h (0 Bft) - - 0 0,000 mm 561 W/m 17,3 C 19,7 C 0,0 km/h (0 Bft) 96,49 %
30.07.2021 08:50 24,7 C 19,6 C 29,4 C 0,0 C 58 % 86 % 1014,2 hPa 0,0 l/m 0,0 km/h (0 Bft) - - 0 0,000 mm 577 W/m 17,2 C 19,6 C 0,0 km/h (0 Bft) 100,00 %
30.07.2021 08:45 24,7 C 19,3 C 30,0 C 0,0 C 58 % 87 % 1014,4 hPa 0,0 l/m 0,0 km/h (0 Bft) - - 0 0,000 mm 561 W/m 17,1 C 19,3 C 0,0 km/h (0 Bft) 100,00 %
30.07.2021 08:40 24,7 C 18,9 C 27,2 C 0,0 C 58 % 89 % 1014,2 hPa 0,0 l/m 0,0 km/h (0 Bft) - - 0 0,000 mm 512 W/m 17,0 C 18,9 C 0,0 km/h (0 Bft) 100,00 %
30.07.2021 08:35 24,7 C 18,6 C 25,0 C 0,0 C 58 % 90 % 1014,2 hPa 0,0 l/m 0,0 km/h (0 Bft) - - 0 0,000 mm 475 W/m 16,9 C 18,6 C 0,0 km/h (0 Bft) 98,25 %
30.07.2021 08:30 24,6 C 18,4 C 21,7 C 0,0 C 58 % 89 % 1014,5 hPa 0,0 l/m 0,0 km/h (0 Bft) - - 0 0,000 mm 162 W/m 16,6 C 18,4 C 0,0 km/h (0 Bft) 100,00 %
30.07.2021 08:25 24,6 C 18,6 C 21,1 C 0,0 C 57 % 89 % 1014,5 hPa 0,0 l/m 0,0 km/h (0 Bft) - - 0 0,000 mm 123 W/m 16,7 C 18,6 C 0,0 km/h (0 Bft) 100,00 %
30.07.2021 08:20 24,6 C 18,6 C 21,7 C 0,0 C 57 % 89 % 1014,5 hPa 0,0 l/m 0,0 km/h (0 Bft) - - 0 0,000 mm 90 W/m 16,7 C 18,6 C 0,0 km/h (0 Bft) 100,00 %
30.07.2021 08:15 24,6 C 18,6 C 23,9 C 0,0 C 57 % 89 % 1014,6 hPa 0,0 l/m 0,0 km/h (0 Bft) - - 0 0,000 mm 107 W/m 16,7 C 18,6 C 0,0 km/h (0 Bft) 99,12 %
30.07.2021 08:10 24,6 C 18,6 C 27,2 C 0,0 C 57 % 89 % 1014,5 hPa 0,0 l/m 0,0 km/h (0 Bft) - - 0 0,000 mm 496 W/m 16,7 C 18,6 C 0,0 km/h (0 Bft) 100,00 %
30.07.2021 08:05 24,5 C 18,3 C 26,7 C 0,0 C 57 % 92 % 1014,6 hPa 0,0 l/m 0,0 km/h (0 Bft) - - 0 0,000 mm 513 W/m 17,0 C 18,3 C 0,0 km/h (0 Bft) 100,00 %
30.07.2021 08:00 24,5 C 18,1 C 25,6 C 0,0 C 57 % 92 % 1014,6 hPa 0,0 l/m 0,0 km/h (0 Bft) - - 0 0,127 mm 403 W/m 16,8 C 18,1 C 0,0 km/h (0 Bft) 100,00 %
30.07.2021 07:55 24,4 C 18,1 C 26,7 C 0,0 C 57 % 93 % 1014,4 hPa 0,0 l/m 0,0 km/h (0 Bft) - - 0 0,000 mm 411 W/m 16,9 C 18,1 C 0,0 km/h (0 Bft) 95,61 %
30.07.2021 07:50 24,4 C 17,8 C 26,1 C 0,0 C 57 % 94 % 1014,5 hPa 0,0 l/m 0,0 km/h (0 Bft) - - 0 0,000 mm 385 W/m 16,8 C 17,8 C 0,0 km/h (0 Bft) 100,00 %
30.07.2021 07:45 24,5 C 17,6 C 26,1 C 0,0 C 57 % 94 % 1014,5 hPa 0,0 l/m 0,0 km/h (0 Bft) - - 0 0,000 mm 334 W/m 16,6 C 17,6 C 0,0 km/h (0 Bft) 100,00 %
30.07.2021 07:40 24,4 C 17,2 C 25,0 C 0,0 C 56 % 93 % 1014,3 hPa 0,0 l/m 0,0 km/h (0 Bft) - - 0 0,000 mm 278 W/m 16,1 C 17,2 C 0,0 km/h (0 Bft) 99,12 %
30.07.2021 07:35 24,4 C 17,2 C 25,6 C 0,0 C 56 % 94 % 1014,3 hPa 0,0 l/m 0,0 km/h (0 Bft) - - 0 0,000 mm 276 W/m 16,2 C 17,2 C 0,0 km/h (0 Bft) 100,00 %
30.07.2021 07:30 24,4 C 17,1 C 25,6 C 0,0 C 56 % 94 % 1014,3 hPa 0,0 l/m 0,0 km/h (0 Bft) - - 0 0,000 mm 271 W/m 16,1 C 17,1 C 0,0 km/h (0 Bft) 100,00 %
30.07.2021 07:25 24,4 C 16,7 C 25,0 C 0,0 C 56 % 95 % 1014,3 hPa 0,0 l/m 0,0 km/h (0 Bft) - - 0 0,000 mm 250 W/m 15,9 C 16,7 C 0,0 km/h (0 Bft) 98,25 %
30.07.2021 07:20 24,4 C 16,4 C 24,4 C 0,0 C 56 % 94 % 1014,4 hPa 0,0 l/m 0,0 km/h (0 Bft) - - 0 0,000 mm 232 W/m 15,4 C 16,4 C 0,0 km/h (0 Bft) 99,12 %
30.07.2021 07:15 24,4 C 16,2 C 23,9 C 0,0 C 56 % 94 % 1014,3 hPa 0,0 l/m 0,0 km/h (0 Bft) - - 0 0,000 mm 221 W/m 15,2 C 16,2 C 0,0 km/h (0 Bft) 99,12 %
30.07.2021 07:10 24,4 C 16,1 C 23,3 C 0,0 C 55 % 94 % 1014,3 hPa 0,0 l/m 0,0 km/h (0 Bft) - - 0 0,000 mm 213 W/m 15,1 C 16,1 C 0,0 km/h (0 Bft) 96,49 %
30.07.2021 07:05 24,3 C 15,7 C 22,8 C 0,0 C 55 % 95 % 1014,3 hPa 0,0 l/m 0,0 km/h (0 Bft) - - 0 0,000 mm 200 W/m 14,9 C 15,7 C 0,0 km/h (0 Bft) 96,49 %
30.07.2021 07:00 24,3 C 15,2 C 21,7 C 0,0 C 55 % 94 % 1014,3 hPa 0,0 l/m 0,0 km/h (0 Bft) - - 0 0,051 mm 181 W/m 14,2 C 15,2 C 0,0 km/h (0 Bft) 98,25 %
30.07.2021 06:55 24,2 C 14,9 C 21,1 C 0,0 C 55 % 95 % 1014,3 hPa 0,0 l/m 0,0 km/h (0 Bft) - - 0 0,000 mm 156 W/m 14,1 C 14,9 C 0,0 km/h (0 Bft) 95,61 %
30.07.2021 06:50 24,2 C 14,6 C 20,6 C 0,0 C 55 % 94 % 1014,3 hPa 0,0 l/m 0,0 km/h (0 Bft) - - 0 0,000 mm 137 W/m 13,6 C 14,6 C 0,0 km/h (0 Bft) 98,25 %
30.07.2021 06:45 24,2 C 14,4 C 20,0 C 0,0 C 55 % 94 % 1014,3 hPa 0,0 l/m 0,0 km/h (0 Bft) - - 0 0,000 mm 121 W/m 13,4 C 14,4 C 0,0 km/h (0 Bft) 100,00 %
30.07.2021 06:40 24,2 C 14,0 C 18,3 C 0,0 C 55 % 94 % 1014,3 hPa 0,0 l/m 0,0 km/h (0 Bft) - - 0 0,000 mm 104 W/m 13,0 C 14,0 C 0,0 km/h (0 Bft) 100,00 %
30.07.2021 06:35 24,2 C 13,8 C 17,2 C 0,0 C 54 % 93 % 1014,2 hPa 0,0 l/m 0,0 km/h (0 Bft) - - 0 0,000 mm 91 W/m 12,7 C 13,8 C 0,0 km/h (0 Bft) 100,00 %
30.07.2021 06:30 24,1 C 13,7 C 16,1 C 0,0 C 54 % 93 % 1014,2 hPa 0,0 l/m 0,0 km/h (0 Bft) - - 0 0,000 mm 72 W/m 12,6 C 13,7 C 0,0 km/h (0 Bft) 100,00 %
30.07.2021 06:25 24,1 C 13,6 C 15,6 C 0,0 C 54 % 93 % 1014,2 hPa 0,0 l/m 0,0 km/h (0 Bft) - - 0 0,000 mm 62 W/m 12,5 C 13,6 C 0,0 km/h (0 Bft) 100,00 %
30.07.2021 06:20 24,1 C 13,5 C 15,0 C 0,0 C 54 % 93 % 1014,1 hPa 0,0 l/m 0,0 km/h (0 Bft) - - 0 0,000 mm 35 W/m 12,4 C 13,5 C 0,0 km/h (0 Bft) 100,00 %
30.07.2021 06:15 24,1 C 13,5 C 15,0 C 0,0 C 54 % 93 % 1014,1 hPa 0,0 l/m 0,0 km/h (0 Bft) - - 0 0,000 mm 33 W/m 12,4 C 13,5 C 0,0 km/h (0 Bft) 100,00 %
30.07.2021 06:10 24,1 C 13,4 C 14,4 C 0,0 C 54 % 93 % 1014,1 hPa 0,0 l/m 0,0 km/h (0 Bft) - - 0 0,000 mm 28 W/m 12,3 C 13,4 C 0,0 km/h (0 Bft) 100,00 %
30.07.2021 06:05 24,2 C 13,3 C 14,4 C 0,0 C 53 % 92 % 1014,1 hPa 0,0 l/m 0,0 km/h (0 Bft) - - 0 0,000 mm 23 W/m 12,0 C 13,3 C 0,0 km/h (0 Bft) 100,00 %
30.07.2021 06:00 24,2 C 13,3 C 13,9 C 0,0 C 53 % 92 % 1014,1 hPa 0,0 l/m 0,0 km/h (0 Bft) - - 0 0,000 mm 19 W/m 12,0 C 13,3 C 0,0 km/h (0 Bft) 100,00 %
30.07.2021 05:55 24,2 C 13,3 C 13,9 C 0,0 C 53 % 92 % 1014,1 hPa 0,0 l/m 0,0 km/h (0 Bft) - - 0 0,000 mm 16 W/m 12,0 C 13,3 C 0,0 km/h (0 Bft) 100,00 %
30.07.2021 05:50 24,3 C 13,3 C 13,9 C 0,0 C 53 % 92 % 1014,1 hPa 0,0 l/m 0,0 km/h (0 Bft) - - 0 0,000 mm 9 W/m 12,0 C 13,3 C 0,0 km/h (0 Bft) 98,25 %
30.07.2021 05:45 24,3 C 13,3 C 13,9 C 0,0 C 53 % 92 % 1014,2 hPa 0,0 l/m 0,0 km/h (0 Bft) - - 0 0,000 mm 7 W/m 12,0 C 13,3 C 0,0 km/h (0 Bft) 90,35 %
30.07.2021 05:40 24,3 C 13,4 C 13,3 C 0,0 C 53 % 92 % 1014,2 hPa 0,0 l/m 0,0 km/h (0 Bft) - - 0 0,000 mm 0 W/m 12,1 C 13,4 C 0,0 km/h (0 Bft) 100,00 %
30.07.2021 05:35 24,4 C 13,4 C 13,3 C 0,0 C 53 % 92 % 1014,2 hPa 0,0 l/m 0,0 km/h (0 Bft) - - 0 0,000 mm 0 W/m 12,1 C 13,4 C 0,0 km/h (0 Bft) 100,00 %
30.07.2021 05:30 24,4 C 13,4 C 13,9 C 0,0 C 53 % 92 % 1014,1 hPa 0,0 l/m 0,0 km/h (0 Bft) - - 0 0,000 mm 0 W/m 12,1 C 13,4 C 0,0 km/h (0 Bft) 100,00 %
30.07.2021 05:25 24,5 C 13,4 C 13,9 C 0,0 C 54 % 92 % 1014,2 hPa 0,0 l/m 0,0 km/h (0 Bft) - - 0 0,000 mm 0 W/m 12,1 C 13,4 C 0,0 km/h (0 Bft) 98,25 %
30.07.2021 05:20 24,5 C 13,4 C 13,9 C 0,0 C 54 % 92 % 1014,2 hPa 0,0 l/m 0,0 km/h (0 Bft) - - 0 0,000 mm 0 W/m 12,1 C 13,4 C 0,0 km/h (0 Bft) 100,00 %
30.07.2021 05:15 24,5 C 13,4 C 13,9 C 0,0 C 54 % 92 % 1014,1 hPa 0,0 l/m 0,0 km/h (0 Bft) - - 0 0,000 mm 0 W/m 12,1 C 13,4 C 0,0 km/h (0 Bft) 100,00 %
30.07.2021 05:10 24,6 C 13,5 C 13,9 C 0,0 C 54 % 92 % 1014,0 hPa 0,0 l/m 0,0 km/h (0 Bft) - - 0 0,000 mm 0 W/m 12,2 C 13,5 C 0,0 km/h (0 Bft) 97,37 %
30.07.2021 05:05 24,6 C 13,5 C 13,9 C 0,0 C 54 % 92 % 1014,1 hPa 0,0 l/m 0,0 km/h (0 Bft) - - 0 0,000 mm 0 W/m 12,2 C 13,5 C 0,0 km/h (0 Bft) 97,37 %
30.07.2021 05:00 24,6 C 13,6 C 13,9 C 0,0 C 54 % 92 % 1013,9 hPa 0,0 l/m 0,0 km/h (0 Bft) - - 0 0,000 mm 0 W/m 12,3 C 13,6 C 0,0 km/h (0 Bft) 97,37 %
30.07.2021 04:55 24,6 C 13,6 C 13,3 C 0,0 C 54 % 92 % 1013,9 hPa 0,0 l/m 0,0 km/h (0 Bft) - - 0 0,000 mm 0 W/m 12,3 C 13,6 C 0,0 km/h (0 Bft) 99,12 %
30.07.2021 04:50 24,6 C 13,6 C 13,3 C 0,0 C 54 % 92 % 1014,0 hPa 0,0 l/m 0,0 km/h (0 Bft) - - 0 0,000 mm 0 W/m 12,3 C 13,6 C 0,0 km/h (0 Bft) 99,12 %
30.07.2021 04:45 24,7 C 13,7 C 13,9 C 0,0 C 54 % 92 % 1013,9 hPa 0,0 l/m 0,0 km/h (0 Bft) - - 0 0,000 mm 0 W/m 12,4 C 13,7 C 0,0 km/h (0 Bft) 97,37 %
30.07.2021 04:40 24,7 C 13,7 C 13,9 C 0,0 C 54 % 92 % 1013,9 hPa 0,0 l/m 0,0 km/h (0 Bft) - - 0 0,000 mm 0 W/m 12,4 C 13,7 C 0,0 km/h (0 Bft) 93,86 %
30.07.2021 04:35 24,7 C 13,8 C 13,9 C 0,0 C 55 % 92 % 1013,9 hPa 0,0 l/m 0,0 km/h (0 Bft) - - 0 0,000 mm 0 W/m 12,5 C 13,8 C 0,0 km/h (0 Bft) 97,37 %
30.07.2021 04:30 24,7 C 13,8 C 13,9 C 0,0 C 55 % 92 % 1014,0 hPa 0,0 l/m 0,0 km/h (0 Bft) - - 0 0,000 mm 0 W/m 12,5 C 13,8 C 0,0 km/h (0 Bft) 98,25 %
30.07.2021 04:25 24,7 C 13,8 C 14,4 C 0,0 C 55 % 92 % 1014,0 hPa 0,0 l/m 0,0 km/h (0 Bft) - - 0 0,000 mm 0 W/m 12,5 C 13,8 C 0,0 km/h (0 Bft) 100,00 %
30.07.2021 04:20 24,8 C 13,8 C 14,4 C 0,0 C 55 % 92 % 1013,9 hPa 0,0 l/m 0,0 km/h (0 Bft) - - 0 0,000 mm 0 W/m 12,5 C 13,8 C 0,0 km/h (0 Bft) 100,00 %
30.07.2021 04:15 24,7 C 13,8 C 14,4 C 0,0 C 55 % 92 % 1013,9 hPa 0,0 l/m 0,0 km/h (0 Bft) - - 0 0,000 mm 0 W/m 12,5 C 13,8 C 0,0 km/h (0 Bft) 100,00 %
30.07.2021 04:10 24,7 C 13,9 C 14,4 C 0,0 C 55 % 92 % 1013,9 hPa 0,0 l/m 0,0 km/h (0 Bft) - - 0 0,000 mm 0 W/m 12,6 C 13,9 C 0,0 km/h (0 Bft) 100,00 %
30.07.2021 04:05 24,8 C 13,9 C 14,4 C 0,0 C 55 % 92 % 1013,9 hPa 0,0 l/m 0,0 km/h (0 Bft) - - 0 0,000 mm 0 W/m 12,6 C 13,9 C 0,0 km/h (0 Bft) 100,00 %
30.07.2021 04:00 24,8 C 14,0 C 13,9 C 0,0 C 55 % 92 % 1013,9 hPa 0,0 l/m 0,0 km/h (0 Bft) - - 0 0,000 mm 0 W/m 12,7 C 14,0 C 0,0 km/h (0 Bft) 100,00 %
30.07.2021 03:55 24,8 C 14,1 C 13,9 C 0,0 C 55 % 92 % 1013,8 hPa 0,2 l/m 0,0 km/h (0 Bft) - - 0 0,000 mm 0 W/m 12,8 C 14,1 C 0,0 km/h (0 Bft) 95,61 %
30.07.2021 03:50 24,8 C 14,2 C 13,9 C 0,0 C 55 % 92 % 1013,9 hPa 0,0 l/m 0,0 km/h (0 Bft) - - 0 0,000 mm 0 W/m 12,9 C 14,2 C 0,0 km/h (0 Bft) 89,47 %
30.07.2021 03:45 24,9 C 14,2 C 14,4 C 0,0 C 55 % 91 % 1014,0 hPa 0,0 l/m 0,0 km/h (0 Bft) - - 0 0,000 mm 0 W/m 12,8 C 14,2 C 0,0 km/h (0 Bft) 93,86 %
30.07.2021 03:40 24,8 C 14,3 C 14,4 C 0,0 C 55 % 92 % 1014,0 hPa 0,0 l/m 0,0 km/h (0 Bft) - - 0 0,000 mm 0 W/m 13,0 C 14,3 C 0,0 km/h (0 Bft) 96,49 %
30.07.2021 03:35 24,8 C 14,3 C 14,4 C 0,0 C 55 % 91 % 1014,0 hPa 0,0 l/m 0,0 km/h (0 Bft) - - 0 0,000 mm 0 W/m 12,8 C 14,3 C 0,0 km/h (0 Bft) 97,37 %
30.07.2021 03:30 24,9 C 14,3 C 14,4 C 0,0 C 55 % 92 % 1013,9 hPa 0,0 l/m 0,0 km/h (0 Bft) - - 0 0,000 mm 0 W/m 13,0 C 14,3 C 0,0 km/h (0 Bft) 93,86 %
30.07.2021 03:25 24,9 C 14,4 C 14,4 C 0,0 C 55 % 92 % 1014,0 hPa 0,0 l/m 0,0 km/h (0 Bft) - - 0 0,000 mm 0 W/m 13,1 C 14,4 C 0,0 km/h (0 Bft) 97,37 %
30.07.2021 03:20 25,0 C 14,4 C 14,4 C 0,0 C 55 % 92 % 1014,1 hPa 0,0 l/m 0,0 km/h (0 Bft) - - 0 0,000 mm 0 W/m 13,1 C 14,4 C 0,0 km/h (0 Bft) 96,49 %
30.07.2021 03:15 25,0 C 14,6 C 14,4 C 0,0 C 55 % 91 % 1014,1 hPa 0,0 l/m 0,0 km/h (0 Bft) - - 0 0,000 mm 0 W/m 13,1 C 14,6 C 0,0 km/h (0 Bft) 97,37 %
30.07.2021 03:10 25,1 C 14,6 C 15,0 C 0,0 C 55 % 91 % 1014,2 hPa 0,0 l/m 0,0 km/h (0 Bft) - - 0 0,000 mm 0 W/m 13,1 C 14,6 C 0,0 km/h (0 Bft) 97,37 %
30.07.2021 03:05 25,1 C 14,6 C 15,0 C 0,0 C 55 % 91 % 1014,2 hPa 0,0 l/m 0,0 km/h (0 Bft) - - 0 0,000 mm 0 W/m 13,1 C 14,6 C 0,0 km/h (0 Bft) 93,86 %
30.07.2021 03:00 25,0 C 14,7 C 15,0 C 0,0 C 55 % 91 % 1014,3 hPa 0,0 l/m 0,0 km/h (0 Bft) - - 0 0,000 mm 0 W/m 13,2 C 14,7 C 0,0 km/h (0 Bft) 99,12 %
30.07.2021 02:55 25,1 C 14,7 C 15,0 C 0,0 C 55 % 91 % 1014,2 hPa 0,0 l/m 0,0 km/h (0 Bft) - - 0 0,000 mm 0 W/m 13,2 C 14,7 C 0,0 km/h (0 Bft) 93,86 %
30.07.2021 02:50 25,0 C 14,8 C 14,4 C 0,0 C 55 % 91 % 1014,1 hPa 0,0 l/m 0,0 km/h (0 Bft) - - 0 0,000 mm 0 W/m 13,3 C 14,8 C 0,0 km/h (0 Bft) 94,74 %
30.07.2021 02:45 25,1 C 14,8 C 14,4 C 0,0 C 55 % 91 % 1014,2 hPa 0,0 l/m 0,0 km/h (0 Bft) - - 0 0,000 mm 0 W/m 13,3 C 14,8 C 0,0 km/h (0 Bft) 96,49 %
30.07.2021 02:40 25,1 C 14,8 C 14,4 C 0,0 C 55 % 91 % 1014,2 hPa 0,0 l/m 0,0 km/h (0 Bft) - - 0 0,000 mm 0 W/m 13,3 C 14,8 C 0,0 km/h (0 Bft) 94,74 %
30.07.2021 02:35 25,1 C 14,8 C 15,0 C 0,0 C 56 % 91 % 1014,2 hPa 0,0 l/m 0,0 km/h (0 Bft) - - 0 0,000 mm 0 W/m 13,3 C 14,8 C 0,0 km/h (0 Bft) 98,25 %
30.07.2021 02:30 25,1 C 14,9 C 15,6 C 0,0 C 56 % 91 % 1014,2 hPa 0,0 l/m 0,0 km/h (0 Bft) - - 0 0,000 mm 0 W/m 13,4 C 14,9 C 0,0 km/h (0 Bft) 90,35 %
30.07.2021 02:25 25,1 C 14,9 C 15,6 C 0,0 C 56 % 91 % 1014,2 hPa 0,0 l/m 0,0 km/h (0 Bft) - - 0 0,000 mm 0 W/m 13,4 C 14,9 C 0,0 km/h (0 Bft) 95,61 %
30.07.2021 02:20 25,1 C 15,0 C 15,0 C 0,0 C 56 % 91 % 1014,2 hPa 0,0 l/m 0,0 km/h (0 Bft) - - 0 0,000 mm 0 W/m 13,5 C 15,0 C 0,0 km/h (0 Bft) 94,74 %
30.07.2021 02:15 25,1 C 15,1 C 15,0 C 0,0 C 56 % 91 % 1014,2 hPa 0,0 l/m 0,0 km/h (0 Bft) - - 0 0,000 mm 0 W/m 13,6 C 15,1 C 0,0 km/h (0 Bft) 100,00 %
30.07.2021 02:10 25,1 C 15,2 C 15,0 C 0,0 C 56 % 91 % 1014,2 hPa 0,0 l/m 0,0 km/h (0 Bft) - - 0 0,000 mm 0 W/m 13,7 C 15,2 C 0,0 km/h (0 Bft) 98,25 %
30.07.2021 02:05 25,2 C 15,2 C 15,6 C 0,0 C 56 % 91 % 1014,2 hPa 0,0 l/m 0,0 km/h (0 Bft) - - 0 0,000 mm 0 W/m 13,7 C 15,2 C 0,0 km/h (0 Bft) 99,12 %
30.07.2021 02:00 25,1 C 15,3 C 15,0 C 0,0 C 56 % 91 % 1014,2 hPa 0,0 l/m 0,0 km/h (0 Bft) - - 0 0,000 mm 0 W/m 13,8 C 15,3 C 0,0 km/h (0 Bft) 94,74 %
30.07.2021 01:55 25,2 C 15,3 C 15,0 C 0,0 C 56 % 91 % 1014,2 hPa 0,0 l/m 0,0 km/h (0 Bft) - - 0 0,000 mm 0 W/m 13,8 C 15,3 C 0,0 km/h (0 Bft) 96,49 %
30.07.2021 01:50 25,2 C 15,3 C 15,0 C 0,0 C 56 % 90 % 1014,1 hPa 0,0 l/m 0,0 km/h (0 Bft) - - 0 0,000 mm 0 W/m 13,7 C 15,3 C 0,0 km/h (0 Bft) 96,49 %
30.07.2021 01:45 25,3 C 15,3 C 15,0 C 0,0 C 56 % 91 % 1014,2 hPa 0,0 l/m 0,0 km/h (0 Bft) - - 0 0,000 mm 0 W/m 13,8 C 15,3 C 0,0 km/h (0 Bft) 96,49 %
30.07.2021 01:40 25,2 C 15,4 C 15,6 C 0,0 C 56 % 90 % 1014,3 hPa 0,0 l/m 0,0 km/h (0 Bft) - - 0 0,000 mm 0 W/m 13,8 C 15,4 C 0,0 km/h (0 Bft) 93,86 %
30.07.2021 01:35 25,3 C 15,4 C 15,6 C 0,0 C 56 % 90 % 1014,3 hPa 0,0 l/m 0,0 km/h (0 Bft) - - 0 0,000 mm 0 W/m 13,8 C 15,4 C 0,0 km/h (0 Bft) 98,25 %
30.07.2021 01:30 25,3 C 15,4 C 15,6 C 0,0 C 56 % 90 % 1014,3 hPa 0,0 l/m 0,0 km/h (0 Bft) - - 0 0,000 mm 0 W/m 13,8 C 15,4 C 0,0 km/h (0 Bft) 95,61 %
30.07.2021 01:25 25,3 C 15,5 C 15,0 C 0,0 C 56 % 90 % 1014,3 hPa 0,0 l/m 0,0 km/h (0 Bft) - - 0 0,000 mm 0 W/m 13,9 C 15,5 C 0,0 km/h (0 Bft) 99,12 %
30.07.2021 01:20 25,3 C 15,6 C 15,0 C 0,0 C 56 % 90 % 1014,4 hPa 0,0 l/m 0,0 km/h (0 Bft) - - 0 0,000 mm 0 W/m 14,0 C 15,6 C 0,0 km/h (0 Bft) 93,86 %
30.07.2021 01:15 25,4 C 15,6 C 15,6 C 0,0 C 56 % 90 % 1014,4 hPa 0,0 l/m 0,0 km/h (0 Bft) - - 0 0,000 mm 0 W/m 14,0 C 15,6 C 0,0 km/h (0 Bft) 98,25 %
30.07.2021 01:10 25,4 C 15,7 C 15,6 C 0,0 C 56 % 90 % 1014,4 hPa 0,0 l/m 0,0 km/h (0 Bft) - - 0 0,000 mm 0 W/m 14,1 C 15,7 C 0,0 km/h (0 Bft) 96,49 %
30.07.2021 01:05 25,4 C 15,7 C 15,6 C 0,0 C 56 % 90 % 1014,3 hPa 0,0 l/m 0,0 km/h (0 Bft) - - 0 0,000 mm 0 W/m 14,1 C 15,7 C 0,0 km/h (0 Bft) 95,61 %
30.07.2021 01:00 25,4 C 15,8 C 15,6 C 0,0 C 56 % 90 % 1014,3 hPa 0,0 l/m 0,0 km/h (0 Bft) - - 0 0,000 mm 0 W/m 14,2 C 15,8 C 0,0 km/h (0 Bft) 100,00 %
30.07.2021 00:55 25,6 C 15,8 C 15,6 C 0,0 C 56 % 90 % 1014,3 hPa 0,0 l/m 0,0 km/h (0 Bft) - - 0 0,000 mm 0 W/m 14,2 C 15,8 C 0,0 km/h (0 Bft) 99,12 %
30.07.2021 00:50 25,5 C 15,9 C 15,6 C 0,0 C 57 % 89 % 1014,3 hPa 0,0 l/m 0,0 km/h (0 Bft) - - 0 0,000 mm 0 W/m 14,1 C 15,9 C 0,0 km/h (0 Bft) 100,00 %
30.07.2021 00:45 25,5 C 16,0 C 15,6 C 0,0 C 56 % 89 % 1014,3 hPa 0,0 l/m 0,0 km/h (0 Bft) - - 0 0,000 mm 0 W/m 14,2 C 16,0 C 0,0 km/h (0 Bft) 96,49 %
30.07.2021 00:40 25,5 C 16,1 C 15,6 C 0,0 C 56 % 89 % 1014,3 hPa 0,0 l/m 0,0 km/h (0 Bft) - - 0 0,000 mm 0 W/m 14,3 C 16,1 C 0,0 km/h (0 Bft) 97,37 %
30.07.2021 00:35 25,5 C 16,1 C 15,6 C 0,0 C 57 % 89 % 1014,4 hPa 0,0 l/m 0,0 km/h (0 Bft) - - 0 0,000 mm 0 W/m 14,3 C 16,1 C 0,0 km/h (0 Bft) 97,37 %
30.07.2021 00:30 25,6 C 16,2 C 15,6 C 0,0 C 57 % 89 % 1014,4 hPa 0,0 l/m 0,0 km/h (0 Bft) - - 0 0,000 mm 0 W/m 14,4 C 16,2 C 0,0 km/h (0 Bft) 100,00 %
30.07.2021 00:25 25,6 C 16,2 C 16,1 C 0,0 C 57 % 89 % 1014,3 hPa 0,0 l/m 0,0 km/h (0 Bft) - - 0 0,000 mm 0 W/m 14,4 C 16,2 C 0,0 km/h (0 Bft) 97,37 %
30.07.2021 00:20 25,7 C 16,3 C 16,1 C 0,0 C 57 % 89 % 1014,2 hPa 0,0 l/m 0,0 km/h (0 Bft) - - 0 0,000 mm 0 W/m 14,5 C 16,3 C 0,0 km/h (0 Bft) 97,37 %
30.07.2021 00:15 25,6 C 16,4 C 16,7 C 0,0 C 57 % 89 % 1014,2 hPa 0,0 l/m 0,0 km/h (0 Bft) - - 0 0,000 mm 0 W/m 14,6 C 16,4 C 0,0 km/h (0 Bft) 97,37 %
30.07.2021 00:10 25,6 C 16,4 C 16,7 C 0,0 C 57 % 89 % 1014,2 hPa 0,0 l/m 0,0 km/h (0 Bft) - - 0 0,000 mm 0 W/m 14,6 C 16,4 C 0,0 km/h (0 Bft) 98,25 %
30.07.2021 00:05 25,7 C 16,6 C 16,1 C 0,0 C 57 % 88 % 1014,3 hPa 0,0 l/m 0,0 km/h (0 Bft) - - 0 0,000 mm 0 W/m 14,6 C 16,6 C 0,0 km/h (0 Bft) 95,61 %
30.07.2021 00:00 25,7 C 16,6 C 16,1 C 0,0 C 57 % 88 % 1014,3 hPa 0,0 l/m 0,0 km/h (0 Bft) - - 0 0,000 mm 0 W/m 14,6 C 16,6 C 0,0 km/h (0 Bft) 100,00 %
_ Min-Zeit 06:10 05:40 04:50 00:00 05:30 09:00 03:55 - 00:00 - - - - 05:45 05:45 00:00 03:50
Minimum _ 24,1 C 13,3 C 13,3 C 0,0 C 53 % 85 % 1013,8 hPa - 0,0 km/h (0 Bft) - - - - 12,0 C 13,3 C 0,0 km/h (0 Bft) 89,47 %
_ Max-Zeit 00:00 09:10 09:05 00:00 09:05 06:55 08:00 03:55 00:00 - - 09:00 09:15 09:10 09:10 09:10 00:00
Maximum _ 25,7 C 20,3 C 30,6 C 0,0 C 59 % 95 % 1014,6 hPa 0,2 l/m 0,0 km/h
- - (0 Bft)
- - 0,178 mm 694 W/m 18,1 C 20,3 C 4,8 km/h
NO (1 Bft)
100,00 %
Durchschnitt _ 24,8 C 15,5 C 17,7 C 0,0 C 56 % 91 % 1014,2 hPa #0,2 l/m 0,0 km/h (0 Bft) - - - #0,356 mm 260 W/m 14,0 C 15,5 C 0,1 km/h (0 Bft) 97,92 %